Temp
22 22 22 21 18 17 19 23 25 25 26 29 29 25 23 24 24 21 22 23 23 22 22 22 22 21 21 20 20 19 19 19 19 19 18 18 18 18 18 18 18 18 17 18 17 18 17 17 16
22 23 22 22 18 18 19 24 24 25 28 29 27 25 23 22 23 22 22 23 23 22 22 21 21 21 21 20 20 20 19 19 19 18 18 18 18 18 18 19 18 18 18 17 17 18 17 17 17
22 22 22 18 17 19 21 24 25 27 29 28 25 25 24 23 23 22 22 23 22 21 21 20 21 21 20 20 20 19 20 19 19 19 18 18 18 18 19 19 19 18 18 18 17 17 17 17 16
22 22 23 20 20 22 23 24 28 27 29 28 25 23 23 23 23 22 22 22 22 21 21 20 21 21 21 20 20 19 19 19 19 18 18 18 18 18 18 19 18 18 18 18 18 17 17 17 16
21 22 19 20 21 27 24 27 28 25 27 26 25 23 23 22 22 21 21 21 22 22 21 20 20 20 21 20 20 20 19 19 19 18 18 18 18 18 18 18 18 18 18 18 17 17 17 16 16
21 24 18 19 22 26 25 28 27 27 27 27 24 24 23 22 22 21 21 21 21 21 21 21 20 20 20 20 20 19 19 19 18 18 18 18 17 18 18 17 17 17 17 17 17 17 17 16 16
20 18 19 20 23 26 24 27 27 27 27 26 26 23 23 22 21 21 21 20 20 21 22 21 20 20 20 19 19 19 19 18 18 18 17 17 17 17 17 17 17 17 17 16 16 16 17 16 16
23 19 20 20 23 23 25 27 27 27 26 27 27 23 22 23 23 22 22 21 21 22 21 21 21 20 19 19 18 18 18 18 18 18 18 18 17 17 17 17 17 16 17 16 16 16 16 16 16
23 19 18 20 24 24 27 26 27 27 26 26 27 25 24 24 23 23 23 22 22 23 23 22 21 20 19 18 18 17 17 17 17 17 17 17 17 17 17 17 17 17 16 16 16 16 15 15 16
22 18 19 23 24 26 26 27 26 26 26 26 27 27 25 25 24 24 24 24 23 23 23 22 22 21 19 18 17 17 17 17 17 16 16 16 17 17 17 16 16 16 16 15 15 15 16 16 15
23 20 22 24 26 27 26 26 26 26 25 27 26 26 25 25 25 23 21 21 22 21 21 21 20 20 20 18 17 16 16 16 16 16 16 16 16 16 16 15 15 14 13 16 15 15 15 15 15
21 23 24 25 27 26 25 26 26 26 26 26 26 25 24 23 22 22 22 20 21 20 20 21 20 19 19 18 15 16 16 16 16 16 16 16 16 15 15 14 14 14 12 13 13 14 15 15 14
22 22 25 26 26 26 26 25 25 26 26 25 25 24 23 22 21 21 21 20 19 18 18 19 19 19 18 17 15 15 16 16 16 16 16 16 16 15 15 14 14 14 14 13 13 15 14 15 14
24 24 24 25 25 25 24 24 25 26 26 25 24 23 22 21 20 20 20 20 19 19 18 18 18 18 17 16 15 15 15 15 15 15 16 16 16 15 15 15 14 14 14 14 13 14 14 14 14
24 21 21 22 24 23 25 21 22 25 26 24 23 22 21 20 19 19 18 18 18 18 18 17 18 18 18 16 16 16 16 16 15 14 14 15 15 16 15 15 14 14 14 14 14 13 13 13 13
20 20 19 22 23 24 23 21 22 26 25 23 23 22 21 19 18 18 17 17 16 17 17 18 18 16 16 17 16 15 15 15 16 15 15 14 14 14 14 14 14 14 14 14 13 13 13 13 13
19 17 18 20 23 23 21 21 22 26 24 23 23 22 20 18 17 17 16 16 15 15 16 16 15 15 16 15 15 15 15 15 15 15 15 15 14 14 14 14 14 14 14 14 13 14 13 14 12
17 18 20 20 22 22 22 22 21 25 25 25 23 20 19 18 17 16 16 15 14 15 15 15 15 15 15 14 14 14 14 14 14 14 15 14 15 15 14 14 14 14 13 13 13 13 13 13 14
19 19 19 21 23 23 21 21 21 23 24 24 21 19 18 17 16 15 15 15 14 14 15 15 15 14 15 14 14 14 14 14 15 15 15 15 15 15 15 14 13 14 13 13 13 13 13 13 13
19 19 19 21 23 22 21 20 21 22 23 24 21 18 17 17 16 15 14 14 14 13 13 14 15 15 15 15 15 15 15 15 15 15 15 15 15 15 15 14 14 13 13 14 13 13 12 12 12
20 20 20 20 21 21 21 19 21 23 24 23 20 18 17 16 15 14 14 14 13 13 13 13 13 15 15 15 15 15 14 14 14 14 13 13 14 14 14 13 12 12 12 12 12 12 12 11 12
19 21 22 21 20 17 21 17 19 21 22 19 18 17 17 16 15 15 14 13 13 13 13 13 13 12 13 14 14 14 13 13 14 13 12 12 12 12 13 13 13 12 11 11 11 12 11 11 10
19 21 22 21 19 18 18 16 19 20 19 17 17 17 17 16 15 15 14 14 13 13 13 13 13 13 13 13 12 11 11 12 12 12 12 12 11 11 11 11 10 11 10 10 10 10 10 10 10
21 20 20 19 17 15 18 17 16 19 18 16 16 16 16 16 15 15 15 14 13 13 12 12 12 12 12 12 12 11 11 11 10 10 10 11 10 10 10 10 10 9 9 9 9 8 8 9 9
20 18 15 14 14 14 19 17 18 19 19 17 16 15 16 16 15 15 14 13 12 12 12 11 12 11 11 11 11 10 10 10 10 9 9 9 9 9 9 9 9 9 9 9 9 9 8 8 8
18 16 11 14 14 15 19 17 17 18 19 17 15 15 15 15 15 14 13 13 12 12 11 11 11 11 10 10 9 9 9 9 9 9 8 8 8 8 8 8 7 7 7 8 8 8 8 8 8
17 17 18 16 16 14 16 17 17 17 16 15 14 15 15 14 13 13 12 12 12 11 11 10 10 9 9 9 9 9 9 9 8 8 8 8 8 7 7 7 7 7 7 6 6 7 7 7 7
19 19 17 15 14 13 16 16 14 15 15 15 14 13 14 13 13 12 12 11 11 11 10 10 10 9 9 9 9 9 8 8 8 8 8 7 7 7 7 7 7 7 6 6 5 4 5 6 7
17 16 16 16 12 12 14 15 17 15 14 14 13 13 13 12 12 12 11 11 11 10 10 9 9 9 9 8 8 8 8 8 8 8 7 7 7 7 7 6 6 6 6 6 3 2 4 5 5
19 18 15 9 11 9 9 12 15 14 13 13 13 13 12 12 11 11 11 10 10 10 9 9 8 8 8 8 8 7 8 7 7 7 7 7 7 7 6 6 6 6 6 5 3 5 4 5 5
Height
1517 1516 1515 1514 1526 1524 1527 1511 1489 1491 1491 1490 1493 1501 1507 1508 1511 1528 1519 1516 1517 1519 1523 1526 1528 1531 1532 1533 1535 1538 1540 1543 1545 1547 1549 1550 1551 1552 1554 1554 1555 1556 1557 1557 1558 1560 1561 1562 1563
1517 1516 1515 1514 1528 1536 1524 1497 1499 1493 1491 1492 1497 1500 1503 1514 1512 1516 1517 1515 1517 1519 1522 1523 1526 1529 1531 1533 1535 1535 1538 1540 1543 1546 1548 1549 1550 1551 1553 1553 1554 1556 1556 1558 1558 1559 1560 1561 1562
1516 1515 1515 1516 1524 1531 1523 1496 1493 1491 1491 1493 1502 1503 1508 1515 1515 1514 1514 1514 1517 1519 1521 1522 1526 1529 1531 1533 1535 1536 1537 1539 1542 1545 1547 1548 1549 1550 1552 1553 1553 1555 1556 1557 1558 1559 1560 1561 1562
1515 1515 1514 1518 1521 1508 1500 1494 1490 1494 1493 1495 1499 1508 1513 1513 1513 1514 1516 1515 1515 1518 1518 1520 1525 1528 1530 1533 1534 1536 1539 1540 1542 1544 1546 1548 1549 1550 1551 1552 1553 1554 1556 1556 1557 1559 1560 1560 1561
1516 1513 1518 1517 1511 1498 1491 1491 1491 1496 1496 1499 1501 1510 1513 1515 1514 1514 1515 1516 1517 1518 1518 1521 1525 1528 1529 1532 1534 1536 1538 1539 1541 1543 1546 1547 1549 1550 1551 1552 1552 1553 1554 1556 1556 1557 1558 1559 1560
1516 1511 1525 1527 1511 1492 1491 1491 1492 1497 1498 1500 1506 1510 1515 1516 1514 1514 1516 1517 1517 1518 1519 1521 1524 1527 1529 1530 1533 1535 1538 1540 1541 1544 1545 1547 1548 1550 1551 1552 1553 1554 1554 1555 1556 1556 1557 1558 1559
1514 1517 1522 1515 1508 1493 1491 1489 1495 1497 1500 1500 1505 1511 1515 1516 1516 1514 1515 1516 1517 1517 1518 1520 1522 1525 1528 1530 1532 1534 1536 1538 1540 1542 1544 1545 1547 1548 1550 1551 1552 1553 1554 1555 1555 1555 1555 1556 1557
1511 1514 1517 1508 1505 1506 1490 1490 1494 1497 1503 1503 1503 1509 1514 1513 1514 1515 1514 1514 1516 1517 1518 1520 1522 1523 1526 1529 1532 1534 1535 1537 1538 1540 1542 1543 1545 1546 1548 1549 1550 1551 1552 1554 1554 1554 1554 1554 1554
1509 1519 1523 1511 1500 1496 1491 1492 1497 1499 1501 1503 1503 1505 1508 1510 1512 1513 1513 1515 1516 1515 1517 1519 1521 1523 1525 1528 1531 1533 1535 1536 1538 1539 1540 1541 1542 1544 1545 1547 1548 1549 1551 1551 1552 1553 1553 1553 1553
1508 1517 1509 1501 1498 1495 1493 1494 1497 1500 1501 1503 1503 1505 1506 1509 1510 1511 1511 1512 1513 1514 1515 1517 1519 1522 1524 1527 1530 1532 1534 1536 1537 1539 1540 1541 1542 1543 1544 1546 1547 1547 1549 1549 1550 1550 1550 1550 1551
1504 1510 1499 1497 1497 1494 1495 1496 1497 1498 1502 1501 1502 1504 1507 1509 1509 1513 1516 1513 1513 1515 1516 1517 1519 1522 1524 1525 1529 1532 1533 1535 1537 1537 1538 1539 1540 1541 1542 1543 1543 1544 1545 1546 1547 1547 1548 1548 1548
1505 1498 1495 1493 1494 1494 1493 1494 1495 1496 1499 1500 1499 1502 1504 1506 1508 1510 1512 1512 1512 1515 1517 1518 1520 1522 1523 1524 1526 1529 1531 1533 1533 1534 1535 1537 1538 1539 1538 1539 1541 1542 1543 1544 1544 1544 1545 1546 1546
1498 1495 1492 1490 1491 1491 1492 1492 1495 1495 1498 1499 1498 1500 1503 1505 1508 1511 1512 1514 1516 1517 1517 1518 1519 1521 1523 1524 1525 1528 1530 1532 1533 1533 1533 1534 1535 1535 1536 1538 1539 1540 1540 1540 1540 1541 1542 1542 1542
1495 1492 1491 1489 1487 1489 1491 1491 1492 1494 1496 1497 1497 1500 1503 1505 1508 1511 1512 1513 1515 1516 1515 1515 1517 1518 1521 1522 1525 1526 1528 1529 1530 1530 1532 1533 1535 1536 1535 1535 1535 1536 1537 1538 1538 1538 1538 1539 1540
1492 1494 1489 1486 1487 1487 1490 1493 1490 1490 1493 1494 1496 1499 1503 1505 1508 1513 1514 1513 1513 1513 1513 1512 1515 1518 1521 1522 1524 1527 1528 1529 1529 1528 1527 1529 1531 1532 1533 1533 1532 1532 1534 1534 1534 1535 1534 1535 1535
1496 1494 1503 1485 1485 1483 1490 1497 1484 1485 1487 1490 1493 1497 1501 1505 1509 1512 1514 1515 1514 1513 1513 1512 1515 1519 1520 1522 1523 1525 1526 1528 1528 1527 1528 1527 1527 1527 1529 1531 1530 1530 1531 1531 1531 1530 1529 1528 1530
1498 1510 1503 1490 1479 1480 1484 1489 1479 1477 1473 1485 1490 1494 1498 1504 1508 1511 1513 1515 1515 1514 1513 1513 1516 1518 1520 1520 1521 1522 1523 1524 1524 1524 1525 1526 1527 1527 1526 1525 1525 1526 1526 1526 1525 1525 1525 1524 1525
1508 1504 1493 1490 1474 1468 1477 1481 1476 1478 1476 1481 1485 1490 1495 1501 1506 1507 1511 1514 1516 1516 1515 1514 1515 1517 1519 1521 1521 1522 1523 1523 1523 1522 1522 1522 1523 1522 1522 1522 1521 1521 1521 1520 1519 1520 1519 1518 1519
1490 1492 1493 1482 1471 1471 1479 1481 1478 1475 1477 1477 1481 1487 1494 1499 1504 1505 1508 1512 1516 1517 1516 1516 1517 1518 1520 1520 1520 1522 1521 1521 1521 1521 1521 1519 1518 1517 1517 1516 1515 1515 1515 1514 1513 1513 1513 1512 1513
1487 1489 1488 1478 1471 1475 1480 1482 1473 1471 1472 1473 1478 1483 1489 1496 1499 1502 1506 1510 1515 1517 1517 1516 1517 1519 1520 1520 1521 1521 1521 1521 1520 1520 1519 1517 1516 1515 1514 1513 1511 1510 1508 1508 1507 1506 1505 1502 1503
1479 1483 1482 1483 1470 1470 1477 1484 1474 1466 1466 1469 1473 1478 1485 1488 1493 1500 1505 1509 1513 1516 1516 1517 1517 1518 1519 1520 1520 1520 1520 1519 1518 1517 1515 1514 1513 1511 1510 1509 1507 1505 1504 1501 1501 1501 1499 1497 1495
1480 1469 1470 1472 1480 1497 1472 1497 1476 1467 1464 1469 1474 1478 1483 1488 1493 1498 1503 1507 1511 1514 1515 1516 1516 1517 1517 1518 1518 1518 1517 1516 1514 1513 1512 1511 1509 1506 1505 1503 1501 1499 1497 1495 1495 1495 1492 1491 1487
1471 1465 1466 1469 1476 1482 1483 1494 1470 1466 1469 1471 1472 1477 1482 1487 1491 1496 1501 1506 1510 1512 1514 1515 1515 1516 1517 1517 1516 1515 1514 1513 1511 1510 1508 1507 1506 1504 1501 1499 1496 1495 1493 1490 1487 1487 1486 1484 1481
1458 1465 1466 1471 1480 1501 1480 1484 1480 1465 1464 1472 1474 1478 1483 1487 1491 1496 1500 1505 1509 1510 1511 1512 1513 1513 1514 1514 1514 1512 1510 1508 1507 1506 1504 1501 1500 1499 1499 1497 1494 1491 1489 1486 1483 1480 1479 1478 1475
1455 1471 1496 1502 1502 1496 1468 1477 1461 1449 1448 1456 1465 1474 1480 1486 1492 1496 1500 1505 1508 1509 1510 1510 1511 1511 1512 1511 1510 1508 1506 1504 1503 1501 1499 1497 1496 1496 1495 1493 1489 1487 1485 1482 1479 1476 1473 1471 1469
1454 1465 1496 1501 1500 1485 1459 1469 1458 1440 1444 1456 1465 1473 1480 1488 1493 1496 1500 1503 1505 1507 1508 1509 1509 1508 1507 1506 1505 1503 1502 1499 1497 1496 1494 1493 1492 1490 1489 1486 1484 1482 1480 1478 1474 1470 1467 1465 1464
1451 1456 1454 1471 1468 1486 1468 1461 1454 1448 1453 1459 1467 1474 1481 1487 1490 1494 1497 1500 1502 1504 1505 1507 1506 1505 1504 1503 1501 1500 1498 1496 1494 1492 1489 1487 1485 1483 1481 1480 1477 1475 1473 1470 1469 1467 1464 1460 1456
1437 1442 1463 1470 1487 1488 1463 1460 1464 1460 1460 1463 1468 1473 1479 1484 1487 1491 1495 1498 1500 1502 1502 1502 1501 1500 1499 1499 1497 1496 1495 1493 1491 1489 1485 1482 1479 1477 1475 1474 1472 1468 1466 1463 1459 1456 1457 1455 1452
1438 1444 1447 1455 1469 1479 1474 1458 1438 1447 1452 1460 1468 1473 1478 1482 1487 1491 1495 1497 1499 1500 1500 1498 1497 1497 1497 1496 1495 1493 1491 1489 1486 1484 1482 1478 1475 1472 1468 1466 1465 1462 1457 1454 1455 1450 1450 1447 1446
1423 1431 1442 1472 1472 1476 1481 1466 1438 1446 1454 1459 1467 1473 1478 1483 1488 1492 1494 1496 1496 1496 1495 1495 1494 1494 1493 1492 1490 1489 1487 1484 1482 1479 1477 1474 1469 1467 1465 1461 1458 1455 1451 1448 1444 1441 1444 1440 1439
Wind_Speed
4 2 8 9 3 4 3 6 2 9 5 7 12 22 20 19 6 5 6 1 3 5 8 15 19 21 21 20 20 18 16 13 11 10 8 5 4 4 4 3 4 5 5 5 4 5 6 6 6
3 3 10 6 3 1 6 7 10 7 6 4 20 17 11 3 15 11 2 5 8 7 8 15 22 22 21 20 20 19 17 14 11 10 8 5 3 2 2 2 3 3 4 3 3 3 4 4 4
0 6 3 4 3 4 3 4 7 7 14 15 15 20 6 6 9 7 5 11 9 7 8 14 23 21 21 19 18 18 16 14 12 10 8 5 4 2 2 2 3 3 4 3 2 1 2 3 4
5 5 7 2 8 7 8 5 5 7 10 17 18 8 9 3 6 8 15 13 7 6 4 17 24 22 20 19 18 16 14 13 11 9 8 6 4 3 3 4 4 3 3 3 3 1 1 2 3
10 7 2 4 8 3 7 12 9 6 4 15 10 6 11 10 11 14 15 13 11 8 8 20 25 22 20 18 16 15 14 13 11 9 8 6 5 5 5 5 5 5 4 3 2 2 2 2 3
6 3 4 5 7 4 5 12 6 8 11 8 17 11 7 10 13 14 14 15 11 5 7 17 23 21 19 18 17 16 15 13 11 9 8 7 6 6 7 7 6 6 5 4 4 4 3 3 4
9 2 6 8 6 4 7 16 5 3 2 5 10 4 13 12 10 13 15 13 11 7 6 12 21 22 20 18 17 16 15 14 12 11 9 9 8 8 8 9 8 8 8 6 6 6 5 5 6
20 2 9 7 7 4 10 9 9 5 5 6 5 7 10 13 8 9 11 10 8 7 8 8 17 22 22 21 19 17 16 15 13 12 11 11 10 10 10 10 10 10 9 9 9 8 8 8 7
20 3 7 7 7 6 16 7 9 3 4 7 4 19 20 15 7 3 2 7 7 4 4 6 11 19 22 22 20 19 17 16 15 14 14 14 13 13 13 13 13 13 11 12 12 11 11 11 10
2 3 9 5 8 2 8 10 10 5 9 7 11 6 20 15 12 8 8 11 13 12 10 7 7 13 21 22 20 19 19 17 17 16 16 15 15 15 15 14 16 17 16 15 14 14 14 14 12
16 9 10 18 8 12 3 1 5 9 3 10 3 11 12 10 6 15 18 7 18 15 9 6 4 5 15 20 17 14 16 18 19 19 19 17 17 17 17 15 15 17 16 16 17 17 18 17 15
6 19 22 20 17 10 4 6 4 6 5 7 12 14 11 11 9 6 6 16 12 16 8 5 4 3 3 14 13 8 7 8 11 18 20 20 19 19 19 19 17 17 20 20 20 20 19 19 20
9 12 23 22 22 10 14 8 5 11 13 8 11 13 11 9 8 7 3 11 14 8 11 9 6 5 3 5 14 9 9 11 9 7 9 10 10 16 19 20 21 23 23 22 23 17 19 20 21
16 17 17 20 8 9 9 7 8 13 14 5 12 13 10 8 6 6 3 2 9 7 6 16 12 4 4 3 19 13 10 10 10 17 14 13 13 11 16 19 25 26 24 23 21 18 19 19 17
18 9 10 14 6 6 17 7 8 18 20 17 20 19 15 13 9 9 4 3 3 3 6 11 13 7 5 3 3 18 18 17 16 8 17 20 17 18 18 21 24 28 26 25 24 24 25 25 21
6 6 6 8 10 19 13 14 11 24 27 24 22 20 20 17 16 11 8 4 5 4 7 8 12 8 5 4 6 9 15 14 19 22 13 14 19 21 21 23 25 28 30 27 28 28 30 31 30
3 8 9 12 16 13 12 7 11 16 21 27 27 29 27 22 19 12 8 7 10 11 11 14 15 9 3 3 1 4 7 9 13 20 20 20 18 21 26 26 26 27 29 30 28 29 29 33 34
6 9 12 15 11 8 7 6 8 10 26 23 22 33 31 24 20 15 12 13 11 10 12 14 13 13 11 8 5 7 7 6 6 10 12 18 21 24 25 26 26 26 29 31 30 30 34 35 36
11 13 11 13 9 6 6 7 11 18 18 20 16 36 34 30 26 23 19 16 15 12 11 13 13 14 11 8 7 3 3 5 8 6 6 10 13 17 21 24 25 26 29 32 32 36 35 38 43
16 18 18 14 4 4 8 10 10 7 6 21 23 33 38 34 26 21 16 12 13 13 10 11 12 10 7 4 3 3 5 5 8 11 13 13 14 14 16 20 24 24 26 29 32 31 34 41 43
16 17 16 13 8 3 2 6 5 5 11 8 29 40 39 37 31 24 17 12 12 12 10 10 8 8 6 5 4 2 5 10 14 15 17 20 20 17 20 24 24 27 29 30 31 34 36 36 37
16 13 15 5 3 4 1 7 8 7 16 13 28 34 37 34 27 22 16 13 9 6 6 7 7 6 6 8 7 10 14 17 17 19 20 21 24 25 26 29 28 27 26 30 33 33 34 37 37
13 10 7 2 3 1 6 4 6 6 3 13 19 29 35 32 27 21 18 13 8 4 5 7 5 5 5 10 13 15 19 21 22 23 25 24 24 26 27 27 27 30 29 28 27 30 33 38 34
7 6 1 2 2 3 10 6 5 8 9 11 17 28 34 29 24 20 15 17 9 4 5 6 4 5 11 11 14 17 19 20 24 27 31 31 30 26 23 27 28 29 30 30 29 29 30 30 33
10 6 1 2 2 8 11 11 17 7 18 21 22 29 32 28 23 20 22 17 13 10 5 2 5 10 14 18 20 20 22 24 26 25 25 26 29 26 27 29 29 32 33 30 26 23 22 21 22
8 9 5 6 5 5 15 7 6 4 26 30 31 33 29 24 19 20 15 9 6 4 5 7 13 18 20 19 21 20 24 27 27 23 22 25 28 29 30 30 29 30 32 32 27 24 21 21 19
7 10 13 1 2 1 4 3 6 11 18 24 27 30 26 24 17 13 8 4 1 6 9 10 11 11 14 18 21 19 20 19 20 22 23 25 26 28 29 31 33 32 32 33 34 32 29 25 25
12 8 9 4 5 6 5 5 7 11 16 17 17 24 27 21 15 11 6 3 3 7 8 10 12 15 18 21 21 24 20 21 23 24 26 25 30 29 28 27 30 37 36 35 35 27 29 28 30
10 10 4 8 6 5 3 5 3 17 19 17 16 27 24 19 13 7 2 1 4 6 8 10 13 15 18 18 16 17 19 20 24 25 23 27 29 32 34 36 37 32 30 36 40 31 24 24 26
17 16 9 5 5 4 4 4 5 14 13 22 22 22 22 16 11 6 2 3 5 7 10 13 17 20 22 23 24 24 26 29 31 30 30 32 34 35 35 35 36 34 32 34 28 25 27 23 27
Wind_Direction
267 255 306 315 39 77 253 276 160 56 47 32 59 94 82 53 61 150 123 284 288 189 182 188 171 162 157 154 153 157 161 160 158 154 146 131 107 80 70 76 107 118 119 113 97 88 91 96 100
295 271 295 276 112 340 279 156 82 89 111 56 108 95 50 77 84 120 223 276 200 204 207 191 179 169 163 160 159 157 161 162 166 168 166 155 147 108 91 103 120 122 120 118 109 96 95 92 92
324 272 269 160 183 213 230 59 102 107 50 35 105 78 77 109 113 130 128 188 179 200 200 194 183 177 169 167 166 163 162 163 168 175 180 181 187 177 157 161 163 163 149 147 142 102 101 115 113
296 287 254 138 253 268 131 93 45 71 62 46 90 79 85 143 145 139 125 166 168 192 176 182 185 180 175 173 172 168 171 172 175 183 187 199 211 217 199 187 186 185 180 175 167 192 129 146 141
300 264 226 248 252 232 98 81 36 78 79 65 90 118 109 114 131 130 137 166 188 150 135 174 185 186 181 178 179 176 178 177 181 189 201 211 227 238 232 215 203 203 203 205 212 221 216 207 179
280 245 336 281 299 169 89 103 44 96 98 64 110 117 108 137 138 137 157 167 176 154 145 172 185 190 188 186 186 184 187 189 191 201 216 227 233 237 233 227 226 229 228 227 223 227 222 229 224
233 28 263 283 262 228 145 122 103 27 124 98 100 103 138 150 142 145 148 169 177 168 160 177 188 191 196 195 194 194 194 198 199 207 219 236 242 237 230 227 226 235 248 245 234 231 226 232 236
261 104 305 277 287 357 123 99 101 74 81 112 195 147 160 156 149 141 143 167 188 173 165 185 195 195 200 203 202 203 203 206 208 213 222 235 243 241 233 232 234 236 243 242 247 244 240 239 232
275 12 274 275 313 140 129 114 131 134 356 315 221 132 149 148 153 164 150 181 197 239 195 189 201 203 204 208 210 210 213 216 220 222 227 234 240 244 240 239 240 241 237 236 243 248 251 251 242
218 185 255 263 329 138 139 136 140 161 216 245 269 172 143 142 169 197 239 243 220 222 221 207 205 213 211 213 217 222 226 228 230 234 238 241 245 246 249 248 251 249 239 237 245 249 253 256 254
257 234 255 274 319 351 79 36 199 194 234 271 190 87 112 120 140 101 79 236 246 218 224 233 218 228 226 215 214 227 240 246 251 247 245 246 245 248 247 247 250 256 242 238 244 253 256 260 258
255 266 254 269 291 315 312 337 302 318 253 280 144 115 98 93 76 89 41 60 195 219 227 258 283 316 242 208 209 216 244 267 284 253 261 257 252 246 248 253 252 256 251 249 259 259 264 265 262
270 272 281 275 272 289 303 271 268 278 284 119 122 118 108 86 67 62 39 72 105 171 236 235 273 300 336 215 203 210 243 262 279 280 280 280 263 250 242 250 255 263 269 259 264 275 270 269 262
279 289 299 300 285 313 314 241 253 253 255 198 124 121 111 92 76 78 37 51 88 109 149 217 230 292 317 323 202 201 213 247 280 255 267 275 280 275 246 257 259 261 269 266 267 267 274 276 270
295 300 307 288 276 262 277 294 234 247 246 169 135 128 119 125 118 99 106 177 148 119 154 163 199 240 266 238 230 211 214 228 239 268 262 260 267 267 260 258 267 270 270 270 268 265 266 264 262
308 306 285 274 264 259 222 253 245 252 230 163 159 156 137 123 114 118 108 97 143 141 99 118 180 185 201 257 285 238 234 241 237 247 259 247 252 251 254 263 274 273 263 261 265 261 263 259 258
282 262 265 275 242 243 187 242 246 301 191 164 171 159 145 130 122 119 125 102 97 105 122 112 111 107 73 328 256 213 228 251 240 244 253 252 246 246 251 258 264 267 261 258 253 254 255 258 248
218 247 242 252 271 173 151 216 268 277 152 174 183 154 144 140 138 133 122 115 99 97 111 130 127 111 100 81 67 60 35 22 283 275 274 272 271 269 268 265 264 264 263 263 260 258 248 252 253
252 252 276 288 273 143 184 205 240 243 194 191 166 148 146 141 138 130 125 133 108 92 96 108 126 123 121 118 106 81 348 347 345 340 302 277 275 266 267 269 274 270 271 267 266 261 259 256 255
236 254 266 275 212 108 236 246 236 233 215 207 167 144 143 141 143 143 133 135 127 109 98 89 103 104 102 109 83 25 4 16 350 323 311 305 303 295 289 276 270 269 273 272 267 267 270 263 252
243 235 251 246 278 309 4 293 281 269 247 141 151 148 147 150 140 135 134 138 137 132 120 110 85 61 61 43 19 41 3 335 328 306 297 296 294 296 299 293 283 274 273 268 268 270 272 273 271
244 253 250 246 308 254 115 275 271 251 234 136 140 145 149 146 142 138 137 146 143 124 128 118 110 85 25 1 341 323 320 318 315 300 289 289 290 292 297 298 293 289 284 272 273 276 271 272 272
239 249 273 256 267 73 284 254 256 165 104 139 140 142 148 145 141 140 144 157 156 125 81 59 59 68 18 332 319 317 314 310 306 301 301 291 282 287 296 290 291 293 290 286 278 275 272 271 275
216 290 350 46 106 263 243 229 236 218 174 142 127 130 139 142 142 144 152 165 146 89 61 47 16 321 312 310 303 305 302 305 310 307 303 302 300 303 295 291 292 282 286 285 283 281 278 279 271
177 122 72 309 232 234 219 235 234 265 168 158 148 139 140 139 143 150 135 128 121 110 100 47 306 297 301 303 304 301 308 307 302 304 302 305 305 303 303 296 295 294 293 290 289 289 291 290 293
197 168 151 205 198 237 225 237 232 243 151 139 132 137 137 143 137 124 126 120 93 63 15 323 304 306 313 318 323 318 308 310 314 318 318 311 304 300 296 291 292 293 293 288 288 285 294 292 295
210 204 192 249 239 87 236 105 7 97 119 125 130 137 143 137 124 111 105 89 14 310 309 306 308 315 317 317 306 314 312 306 308 305 306 312 307 301 299 296 291 291 290 288 289 283 285 292 294
204 175 188 168 205 229 228 210 179 154 139 139 139 135 134 132 122 108 90 45 338 310 309 301 301 306 317 320 313 304 306 301 306 307 300 311 312 317 311 315 316 309 305 302 297 296 287 285 300
188 211 191 175 193 189 194 233 151 166 153 146 137 139 133 127 128 134 137 278 287 300 307 310 313 313 307 328 310 303 312 311 305 303 301 301 303 307 311 316 320 318 315 308 298 318 293 299 297
202 213 198 158 256 213 149 269 124 139 132 131 140 142 133 137 134 134 140 284 288 294 300 306 312 312 309 301 307 310 300 299 301 300 302 303 303 304 308 311 313 318 313 317 306 298 283 298 301